• In Czech Republic
  • List of Countries
  • For 7 days
  • Water Temperature
  • Satellite Maps
  • Weather Map
  • Weather Widgets
  • user-avatar
    Login

    Hourly Weather Wychodne

    Today, 20 September, Thursday

    Time Temperature Precipitation Wind Pressure Humidity
    00:00 +16°C° 0 mm 1 mps 747 mmHg 87%
    01:00 +16°C° 0 mm 1 mps 747 mmHg 87%
    02:00 +16°C° 0 mm 1 mps 747 mmHg 88%
    03:00 +16°C° 0 mm 1 mps 747 mmHg 88%
    04:00 +16°C° 0 mm 1 mps 747 mmHg 89%
    05:00 +16°C° 0 mm 1 mps 747 mmHg 89%
    06:00 +18°C° 0 mm 1 mps 747 mmHg 86%
    07:00 +18°C° 0 mm 2 mps 747 mmHg 83%
    08:00 +18°C° 0 mm 2 mps 747 mmHg 80%
    09:00 +21°C° 0 mm 2 mps 748 mmHg 72%
    10:00 +24°C° 0 mm 2 mps 748 mmHg 64%
    11:00 +26°C° 0 mm 3 mps 748 mmHg 55%
    12:00 +27°C° 0 mm 3 mps 748 mmHg 52%
    13:00 +28°C° 0 mm 3 mps 748 mmHg 50%
    14:00 +29°C° 0 mm 3 mps 747 mmHg 47%
    15:00 +28°C° 0 mm 3 mps 747 mmHg 50%
    16:00 +28°C° 0 mm 2 mps 747 mmHg 53%
    17:00 +27°C° 0 mm 2 mps 747 mmHg 56%
    18:00 +26°C° 0 mm 2 mps 747 mmHg 61%
    19:00 +24°C° 0 mm 2 mps 747 mmHg 65%
    20:00 +21°C° 0 mm 2 mps 747 mmHg 69%
    21:00 +21°C° 0 mm 2 mps 747 mmHg 70%
    22:00 +20°C° 0 mm 2 mps 747 mmHg 72%
    23:00 +20°C° 0 mm 3 mps 747 mmHg 73%

    Tomorrow, 21 September, Friday

    Time Temperature Precipitation Wind Pressure Humidity
    00:00 +19°C° 0 mm 3 mps 747 mmHg 74%
    01:00 +19°C° 0 mm 2 mps 746 mmHg 76%
    02:00 +18°C° 0 mm 2 mps 746 mmHg 77%
    03:00 +18°C° 0 mm 2 mps 746 mmHg 78%
    04:00 +18°C° 0 mm 3 mps 746 mmHg 79%
    05:00 +17°C° 0 mm 3 mps 746 mmHg 80%
    06:00 +18°C° 0 mm 3 mps 746 mmHg 77%
    07:00 +19°C° 0 mm 3 mps 746 mmHg 74%
    08:00 +19°C° 0 mm 4 mps 746 mmHg 72%
    09:00 +21°C° 0 mm 4 mps 746 mmHg 66%
    10:00 +23°C° 0 mm 4 mps 745 mmHg 60%
    11:00 +26°C° 0 mm 5 mps 745 mmHg 53%
    12:00 +26°C° 0 mm 5 mps 745 mmHg 50%
    13:00 +27°C° 0 mm 6 mps 744 mmHg 47%
    14:00 +28°C° 0 mm 6 mps 744 mmHg 44%
    15:00 +27°C° 0 mm 6 mps 743 mmHg 46%
    16:00 +26°C° 0 mm 5 mps 743 mmHg 48%
    17:00 +25°C° 0 mm 5 mps 742 mmHg 50%
    18:00 +23°C° 0 mm 5 mps 741 mmHg 52%
    19:00 +22°C° 0 mm 5 mps 741 mmHg 53%
    20:00 +21°C° 0 mm 6 mps 740 mmHg 55%
    21:00 +21°C° 0 mm 6 mps 740 mmHg 56%
    22:00 +21°C° 0 mm 6 mps 740 mmHg 57%
    23:00 +21°C° 0 mm 6 mps 739 mmHg 58%

    Day after tomorrow, 22 September, Saturday

    Time Temperature Precipitation Wind Pressure Humidity
    00:00 +20°C° 0 mm 7 mps 739 mmHg 62%
    01:00 +18°C° 0 mm 7 mps 740 mmHg 65%
    02:00 +17°C° 0 mm 7 mps 740 mmHg 68%
    03:00 +16°C° 0.2 mm 6 mps 740 mmHg 72%
    04:00 +14°C° 0.2 mm 5 mps 741 mmHg 76%
    05:00 +12°C° 0.2 mm 4 mps 742 mmHg 80%
    06:00 +12°C° 0 mm 5 mps 742 mmHg 78%
    07:00 +12°C° 0 mm 5 mps 743 mmHg 76%
    08:00 +12°C° 0 mm 5 mps 743 mmHg 73%
    09:00 +12°C° 0 mm 5 mps 744 mmHg 68%
    10:00 +11°C° 0 mm 6 mps 744 mmHg 63%
    11:00 +11°C° 0 mm 6 mps 744 mmHg 58%
    12:00 +13°C° 0 mm 6 mps 744 mmHg 57%
    13:00 +13°C° 0 mm 6 mps 744 mmHg 57%
    14:00 +14°C° 0 mm 6 mps 744 mmHg 56%
    15:00 +14°C° 0.1 mm 6 mps 744 mmHg 57%
    16:00 +14°C° 0.1 mm 5 mps 744 mmHg 59%
    17:00 +14°C° 0.1 mm 5 mps 744 mmHg 61%
    18:00 +12°C° 0 mm 4 mps 744 mmHg 66%
    19:00 +11°C° 0 mm 3 mps 745 mmHg 72%
    20:00 +10°C° 0 mm 3 mps 745 mmHg 77%
    21:00 +9°C° 0 mm 3 mps 745 mmHg 78%
    22:00 +9°C° 0 mm 3 mps 745 mmHg 78%
    23:00 +8°C° 0 mm 4 mps 745 mmHg 78%

    23 September, Sunday

    Time Temperature Precipitation Wind Pressure Humidity
    00:00 +8°C° 0 mm 4 mps 745 mmHg 78%
    01:00 +8°C° 0 mm 4 mps 744 mmHg 78%
    02:00 +8°C° 0 mm 4 mps 744 mmHg 78%
    03:00 +7°C° 0 mm 4 mps 744 mmHg 80%
    04:00 +7°C° 0 mm 4 mps 744 mmHg 81%
    05:00 +7°C° 0 mm 4 mps 744 mmHg 83%
    06:00 +7°C° 0 mm 5 mps 744 mmHg 81%
    07:00 +8°C° 0 mm 5 mps 744 mmHg 79%
    08:00 +8°C° 0 mm 6 mps 744 mmHg 77%
    09:00 +10°C° 0 mm 6 mps 744 mmHg 71%
    10:00 +11°C° 0 mm 6 mps 744 mmHg 64%
    11:00 +14°C° 0 mm 6 mps 744 mmHg 58%
    12:00 +14°C° 0 mm 6 mps 744 mmHg 54%
    13:00 +15°C° 0 mm 6 mps 743 mmHg 51%
    14:00 +15°C° 0 mm 6 mps 743 mmHg 48%
    15:00 +15°C° 0 mm 5 mps 743 mmHg 49%
    16:00 +14°C° 0 mm 4 mps 742 mmHg 51%
    17:00 +14°C° 0 mm 3 mps 742 mmHg 52%
    18:00 +13°C° 0.1 mm 3 mps 741 mmHg 59%
    19:00 +12°C° 0.1 mm 3 mps 741 mmHg 67%
    20:00 +10°C° 0.1 mm 2 mps 740 mmHg 74%
    21:00 +10°C° 0.6 mm 3 mps 739 mmHg 79%
    22:00 +10°C° 0.6 mm 4 mps 738 mmHg 84%
    23:00 +8°C° 0.6 mm 4 mps 736 mmHg 89%

    24 September, Monday

    Time Temperature Precipitation Wind Pressure Humidity
    00:00 +8°C° 3.4 mm 5 mps 734 mmHg 90%
    01:00 +8°C° 3.4 mm 6 mps 732 mmHg 92%
    02:00 +9°C° 3.4 mm 6 mps 730 mmHg 93%
    03:00 +10°C° 3.6 mm 7 mps 728 mmHg 93%
    04:00 +11°C° 3.6 mm 7 mps 726 mmHg 93%
    05:00 +12°C° 3.6 mm 8 mps 725 mmHg 92%
    06:00 +12°C° 0.7 mm 7 mps 724 mmHg 91%
    07:00 +11°C° 0.7 mm 7 mps 723 mmHg 90%
    08:00 +11°C° 0.7 mm 7 mps 723 mmHg 88%
    09:00 +8°C° 1.5 mm 9 mps 724 mmHg 88%
    10:00 +7°C° 1.5 mm 11 mps 726 mmHg 87%
    11:00 +4°C° 1.5 mm 13 mps 727 mmHg 87%
    12:00 +5°C° 0.6 mm 12 mps 729 mmHg 83%
    13:00 +7°C° 0.6 mm 11 mps 731 mmHg 79%
    14:00 +7°C° 0.6 mm 10 mps 734 mmHg 76%
    15:00 +8°C° 0.1 mm 10 mps 736 mmHg 74%
    16:00 +8°C° 0.1 mm 9 mps 738 mmHg 72%
    17:00 +8°C° 0.1 mm 9 mps 740 mmHg 71%
    18:00 +7°C° 0 mm 8 mps 741 mmHg 72%
    19:00 +6°C° 0 mm 8 mps 742 mmHg 73%
    20:00 +5°C° 0 mm 7 mps 742 mmHg 74%
    21:00 +5°C° 0 mm 7 mps 743 mmHg 74%
    22:00 +4°C° 0 mm 6 mps 744 mmHg 74%
    23:00 +5°C° 0 mm 5 mps 744 mmHg 74%

    25 September, Tuesday

    Time Temperature Precipitation Wind Pressure Humidity
    00:00 +5°C° 0 mm 5 mps 745 mmHg 75%
    01:00 +5°C° 0 mm 5 mps 745 mmHg 76%
    02:00 +5°C° 0 mm 5 mps 746 mmHg 76%
    03:00 +3°C° 0 mm 5 mps 746 mmHg 77%
    04:00 +3°C° 0 mm 5 mps 746 mmHg 78%
    05:00 +3°C° 0 mm 5 mps 746 mmHg 79%
    06:00 +3°C° 0 mm 5 mps 747 mmHg 78%
    07:00 +5°C° 0 mm 5 mps 747 mmHg 76%
    08:00 +5°C° 0 mm 5 mps 748 mmHg 75%
    09:00 +7°C° 0.1 mm 5 mps 748 mmHg 68%
    10:00 +8°C° 0.1 mm 5 mps 748 mmHg 62%
    11:00 +10°C° 0.1 mm 5 mps 749 mmHg 55%
    12:00 +10°C° 0 mm 5 mps 748 mmHg 53%
    13:00 +10°C° 0 mm 5 mps 748 mmHg 52%
    14:00 +12°C° 0 mm 4 mps 748 mmHg 51%
    15:00 +11°C° 0.1 mm 4 mps 748 mmHg 58%
    16:00 +10°C° 0.1 mm 3 mps 748 mmHg 65%
    17:00 +9°C° 0.1 mm 2 mps 748 mmHg 72%
    18:00 +9°C° 0.2 mm 2 mps 748 mmHg 77%
    19:00 +8°C° 0.2 mm 2 mps 749 mmHg 83%
    20:00 +8°C° 0.2 mm 2 mps 749 mmHg 88%
    21:00 +8°C° 0.1 mm 1 mps 749 mmHg 89%
    22:00 +8°C° 0.1 mm 1 mps 750 mmHg 91%
    23:00 +8°C° 0.1 mm 1 mps 750 mmHg 92%
    Show more